Date_and_time,latitude,longitude,wind_speed,RelWindDirFrom,WindDirFrom,air_pressure,air_temperature,relative_humidity,Temp,platform_speed_wrt_ground,air_pressure_at_mean_sea_level,platform_orientation
2019-06-17 23:50,50.6304416666667,-96.9807833333333,4.3,5.8,105,989.68,18.9,66,17.61,0.0,1015.67,75.8
2019-06-18 00:00,50.63044,-96.9807566666667,2.4,3.6,124,989.70,18.8,65,17.64,0.0,1015.73,143.4
2019-06-18 00:10,50.6304383333333,-96.9807633333333,2.2,3.1,117,989.66,18.9,65,17.89,0.0,1015.68,143.4
2019-06-18 00:20,50.63044,-96.9807666666667,1.2,2.1,159,989.65,18.2,65,17.97,0.0,1015.71,143.4
2019-06-18 00:30,50.6304433333333,-96.980765,1.5,2.1,155,989.59,18.0,66,17.90,0.0,1015.66,143.4
2019-06-18 00:40,50.6304483333333,-96.980775,1.3,1.9,185,989.52,18.1,66,17.78,0.0,1015.56,143.4
2019-06-18 00:50,50.6304466666667,-96.9807716666667,0.9,1.4,181,989.46,18.3,62,18.10,0.0,1015.48,143.4
2019-06-18 01:00,50.6304583333333,-96.9807733333333,0.3,1.0,185,989.47,18.5,56,18.21,0.0,1015.53,9.8
2019-06-18 01:10,50.6304483333333,-96.9807666666667,1.1,1.6,180,989.50,18.6,57,18.25,0.0,1015.56,9.8
2019-06-18 01:20,50.6304483333333,-96.9807666666667,1.6,2.0,168,989.53,18.5,59,18.35,0.0,1015.62,9.8
2019-06-18 01:30,50.6304516666667,-96.9807666666667,1.5,1.9,175,989.52,18.5,57,18.25,0.0,1015.62,9.8
2019-06-18 01:40,50.63047,-96.9807683333333,0.9,1.7,180,989.52,18.6,59,18.30,0.0,1015.61,9.8
2019-06-18 01:50,50.63045,-96.9807533333333,0.0,0.2,0,989.48,18.8,53,18.34,0.0,1015.57,9.8
2019-06-18 02:00,50.6304516666667,-96.9807633333333,0.0,0.1,0,989.45,18.9,52,18.34,0.0,1015.53,270.0
2019-06-18 02:10,50.63045,-96.9807683333333,0.0,0.0,0,989.46,18.8,51,18.25,0.0,1015.58,270.0
2019-06-18 02:20,50.63045,-96.98077,0.0,0.0,0,989.55,18.8,53,18.12,0.0,1015.68,270.0
2019-06-18 02:30,50.6304483333333,-96.9808083333333,0.3,1.1,198,989.60,19.0,56,18.00,0.0,1015.72,270.0
2019-06-18 02:40,50.630465,-96.980765,0.7,3.3,195,989.68,18.9,55,18.04,0.0,1015.79,270.0
2019-06-18 02:50,50.6304666666667,-96.9807666666667,1.6,2.9,204,989.79,18.4,58,18.12,0.0,1015.92,270.0
2019-06-18 03:00,50.6304533333333,-96.9807583333333,0.8,1.5,248,989.92,18.3,59,18.24,0.0,1016.05,38.0
2019-06-18 03:10,50.6304516666667,-96.9807633333333,1.1,1.6,248,990.04,18.3,57,18.36,0.0,1016.18,38.0
2019-06-18 03:20,50.6304533333333,-96.980765,1.4,2.0,259,990.09,18.3,59,18.43,0.0,1016.24,38.0
2019-06-18 03:30,50.630455,-96.9807633333333,1.6,2.8,252,990.14,18.1,60,18.40,0.0,1016.29,38.0
2019-06-18 03:40,50.6304533333333,-96.980765,3.0,4.0,244,990.11,17.9,60,18.39,0.0,1016.26,38.0
2019-06-18 03:50,50.6304533333333,-96.980765,3.3,4.7,273,990.11,17.8,61,18.48,0.0,1016.26,38.0
2019-06-18 04:00,50.6304366666667,-96.9807633333333,3.5,4.5,276,990.12,17.6,62,18.55,0.0,1016.28,360.0
2019-06-18 04:10,50.6304483333333,-96.9807616666667,3.6,4.6,263,990.16,17.5,62,18.57,0.0,1016.33,360.0
2019-06-18 04:20,50.630465,-96.9807816666667,3.8,5.4,271,990.16,17.5,62,18.60,0.0,1016.32,360.0
2019-06-18 04:30,50.6304516666667,-96.98077,4.5,6.0,275,990.10,17.3,62,18.61,0.0,1016.27,360.0
2019-06-18 04:40,50.630465,-96.98077,3.9,5.3,278,990.10,17.3,62,18.59,0.0,1016.29,360.0
2019-06-18 04:50,50.6304566666667,-96.98077,3.4,5.2,279,990.15,17.3,61,18.57,0.0,1016.35,360.0
2019-06-18 05:00,50.6304533333333,-96.980775,3.4,4.7,274,990.14,17.2,61,18.56,0.0,1016.34,270.0
2019-06-18 05:10,50.6304516666667,-96.9807716666667,3.4,4.5,261,990.08,17.0,62,18.56,0.0,1016.29,270.0
2019-06-18 05:20,50.6304516666667,-96.9807683333333,3.0,3.8,273,990.06,16.8,63,18.55,0.0,1016.29,270.0
2019-06-18 05:30,50.6304516666667,-96.9807683333333,4.4,5.6,278,990.00,16.8,63,18.54,0.0,1016.24,270.0
2019-06-18 05:40,50.6304516666667,-96.980765,4.3,5.6,277,990.00,16.5,64,18.51,0.0,1016.25,270.0
2019-06-18 05:50,50.6304533333333,-96.9807633333333,4.2,5.7,281,990.05,16.3,65,18.51,0.0,1016.33,270.0
2019-06-18 06:00,50.630455,-96.980765,3.5,5.0,277,990.07,15.9,67,18.43,0.0,1016.37,270.0
2019-06-18 06:10,50.630455,-96.980765,3.7,5.0,274,990.05,15.7,68,18.44,0.0,1016.35,270.0
2019-06-18 06:20,50.630455,-96.9807633333333,3.9,5.4,276,990.04,15.6,68,18.50,0.0,1016.36,270.0
2019-06-18 06:30,50.6304566666667,-96.9807633333333,3.8,5.4,278,989.95,15.5,67,18.38,0.0,1016.28,270.0
2019-06-18 06:40,50.630455,-96.9807616666667,4.7,7.7,286,989.82,15.5,62,18.22,0.0,1016.14,270.0
2019-06-18 06:50,50.630465,-96.9807716666667,5.4,7.5,293,989.69,15.7,55,18.23,0.0,1016.01,270.0
2019-06-18 07:00,50.63045,-96.980755,5.6,7.6,294,989.63,15.7,51,18.40,0.0,1015.95,360.0
2019-06-18 07:10,50.6304533333333,-96.980755,4.9,6.6,292,989.60,15.7,49,18.45,0.0,1015.93,360.0
2019-06-18 07:20,50.6304533333333,-96.98076,4.1,6.7,288,989.57,15.7,48,18.45,0.0,1015.90,360.0
2019-06-18 07:30,50.6304533333333,-96.9807616666667,4.9,6.9,287,989.50,15.5,48,18.37,0.0,1015.85,360.0
2019-06-18 07:40,50.6304616666667,-96.9807633333333,4.7,6.9,287,989.45,15.3,48,18.45,0.0,1015.82,360.0
2019-06-18 07:50,50.63046,-96.9807666666667,4.6,7.1,278,989.42,15.1,48,18.48,0.0,1015.81,360.0
2019-06-18 08:00,50.6304616666667,-96.98077,3.9,5.3,276,989.43,14.7,51,18.50,0.0,1015.85,360.0
2019-06-18 08:10,50.63046,-96.9807683333333,4.0,5.8,273,989.39,14.4,51,18.42,0.0,1015.83,360.0
2019-06-18 08:20,50.6304583333333,-96.9807666666667,4.7,6.9,279,989.36,14.4,50,18.26,0.0,1015.80,360.0
2019-06-18 08:30,50.63044,-96.9807666666667,4.7,7.3,286,989.36,14.5,50,18.24,0.0,1015.80,360.0
2019-06-18 08:40,50.6304483333333,-96.9807633333333,4.5,6.3,268,989.43,14.2,51,18.15,0.0,1015.87,360.0
2019-06-18 08:50,50.630445,-96.9807633333333,5.2,7.2,267,989.40,13.8,53,18.12,0.0,1015.86,360.0
2019-06-18 09:00,50.630445,-96.980765,5.2,7.6,268,989.36,13.6,54,18.17,0.0,1015.83,360.0
2019-06-18 09:10,50.630445,-96.9807666666667,5.5,7.7,268,989.29,13.6,54,18.12,0.0,1015.76,360.0
2019-06-18 09:20,50.6304466666667,-96.98077,4.8,7.1,263,989.33,13.6,53,17.92,0.0,1015.81,360.0
2019-06-18 09:30,50.6304466666667,-96.98077,3.7,5.6,269,989.32,13.8,53,17.91,0.0,1015.80,360.0
2019-06-18 09:40,50.6304483333333,-96.98077,4.2,6.0,265,989.32,13.9,52,17.92,0.0,1015.80,360.0
2019-06-18 09:50,50.63045,-96.98077,4.9,6.4,260,989.32,13.8,52,17.81,0.0,1015.83,360.0
2019-06-18 10:00,50.63045,-96.98077,4.8,7.0,266,989.31,13.7,52,18.00,0.0,1015.82,270.0
2019-06-18 10:10,50.63045,-96.9807716666667,5.0,6.9,271,989.27,13.7,52,18.14,0.0,1015.79,270.0
2019-06-18 10:20,50.63045,-96.9807716666667,4.9,7.3,273,989.26,13.6,52,18.08,0.0,1015.78,270.0
2019-06-18 10:30,50.6304483333333,-96.9807716666667,4.9,7.4,270,989.26,13.5,52,18.17,0.0,1015.79,270.0
2019-06-18 10:40,50.6304533333333,-96.980775,4.9,7.5,270,989.29,13.5,52,18.25,0.0,1015.85,270.0
2019-06-18 10:50,50.6304483333333,-96.9807616666667,5.1,7.7,270,989.28,13.6,52,18.29,0.0,1015.85,270.0
2019-06-18 11:00,50.630445,-96.980765,4.8,7.8,274,989.29,13.7,52,18.27,0.0,1015.86,360.0
2019-06-18 11:10,50.6304416666667,-96.98076,4.0,7.6,290,989.36,13.7,51,18.20,0.0,1015.92,360.0
2019-06-18 11:20,50.63044,-96.9807633333333,3.5,5.4,302,989.36,13.9,51,18.12,0.0,1015.91,360.0
2019-06-18 11:30,50.6304166666667,-96.980755,4.5,6.3,299,989.32,13.8,50,18.11,0.0,1015.86,360.0
2019-06-18 11:40,50.6304216666667,-96.9807933333333,4.3,6.6,286,989.33,13.8,50,18.08,0.0,1015.88,360.0
2019-06-18 11:50,50.6304383333333,-96.98076,3.9,6.5,290,989.44,14.0,49,18.06,0.0,1015.98,360.0
2019-06-18 12:00,50.63043,-96.980775,4.2,5.9,294,989.47,14.3,47,18.04,0.0,1016.01,203.5
2019-06-18 12:10,50.6304383333333,-96.9807766666667,4.1,6.8,297,989.49,14.4,47,18.03,0.0,1016.03,203.5
2019-06-18 12:20,50.63044,-96.9807766666667,5.2,8.4,297,989.44,14.5,47,18.04,0.0,1015.97,203.5
2019-06-18 12:30,50.6304416666667,-96.98077,4.6,7.0,283,989.56,14.3,48,18.03,0.0,1016.10,203.5
2019-06-18 12:40,50.630445,-96.98077,4.7,7.2,315,989.63,14.3,49,18.03,0.0,1016.17,203.5
2019-06-18 12:50,50.6304466666667,-96.9807666666667,4.5,7.3,302,989.57,14.5,49,18.04,0.0,1016.09,203.5
2019-06-18 13:00,50.630445,-96.9807683333333,4.5,7.1,318,989.53,15.0,49,18.04,0.0,1016.04,360.0
2019-06-18 13:10,50.6304466666667,-96.9807683333333,4.7,8.0,328,989.62,15.6,47,17.93,0.0,1016.09,360.0
2019-06-18 13:20,50.63045,-96.9807783333333,5.3,9.4,321,989.64,15.9,46,18.00,0.0,1016.10,360.0
2019-06-18 13:30,50.630445,-96.9807733333333,3.6,6.2,343,989.74,16.1,47,18.03,0.0,1016.18,360.0
2019-06-18 13:40,50.6304433333333,-96.980775,2.7,6.1,20,989.75,16.5,48,18.04,0.0,1016.17,360.0
2019-06-18 13:50,50.6304433333333,-96.9807733333333,0.5,3.4,24,989.76,16.4,50,18.04,0.0,1016.17,360.0
2019-06-18 14:00,50.6304433333333,-96.9807716666667,2.5,5.3,283,989.75,16.4,47,18.03,0.0,1016.16,270.0
2019-06-18 14:10,50.6304416666667,-96.9807683333333,3.1,5.9,289,989.72,16.9,44,18.06,0.0,1016.10,270.0
2019-06-18 14:20,50.6304416666667,-96.98077,6.4,10.2,323,989.61,17.6,39,18.01,0.0,1015.96,270.0
2019-06-18 14:30,50.6304416666667,-96.98077,6.5,10.2,318,989.59,17.6,37,17.93,0.0,1015.95,270.0
2019-06-18 14:40,50.6304416666667,-96.9807683333333,6.9,11.8,327,989.55,17.9,37,18.01,0.0,1015.88,270.0
2019-06-18 14:50,50.6304416666667,-96.9807683333333,9.0,13.0,317,989.56,18.3,33,17.99,0.0,1015.86,270.0
2019-06-18 15:00,50.6304416666667,-96.98077,6.1,10.1,310,989.70,18.4,34,18.15,0.0,1015.97,23.5
2019-06-18 15:10,50.6304433333333,-96.98077,4.5,8.4,319,989.66,18.7,36,18.23,0.0,1015.89,23.5
2019-06-18 15:20,50.6304416666667,-96.9807716666667,6.8,11.8,320,989.54,19.1,34,18.26,0.0,1015.74,23.5
2019-06-18 15:30,50.6304416666667,-96.9807716666667,5.9,9.0,327,989.53,19.1,35,18.29,0.0,1015.71,23.5
2019-06-18 15:40,50.6304316666667,-96.9807616666667,6.1,10.5,330,989.43,19.5,34,18.32,0.0,1015.60,23.5
2019-06-18 15:50,50.6304333333333,-96.980765,6.0,9.0,54,989.40,18.7,53,18.32,0.0,1015.60,23.5
2019-06-18 16:00,50.6304366666667,-96.9807666666667,4.4,6.1,76,989.46,18.4,58,18.36,0.0,1015.65,142.0
2019-06-18 16:10,50.6304383333333,-96.980765,4.9,6.6,85,989.41,18.4,63,18.28,0.0,1015.57,142.0
2019-06-18 16:20,50.630445,-96.98076,6.2,7.8,79,989.37,18.3,61,18.05,0.0,1015.53,142.0
2019-06-18 16:30,50.6304466666667,-96.9807633333333,5.2,7.2,84,989.33,18.6,59,17.92,0.0,1015.47,142.0
2019-06-18 16:40,50.6304483333333,-96.980765,5.7,7.1,86,989.35,18.8,60,17.86,0.0,1015.46,142.0
2019-06-18 16:50,50.6304483333333,-96.9807683333333,5.2,6.3,90,989.29,19.1,59,17.90,0.0,1015.38,142.0
2019-06-18 17:00,50.63044,-96.9807683333333,5.6,6.9,88,989.17,19.1,59,17.91,0.0,1015.25,90.0
2019-06-18 17:10,50.6304433333333,-96.9807633333333,5.4,7.1,86,989.07,19.2,59,17.82,0.0,1015.12,90.0
2019-06-18 17:20,50.630445,-96.980765,6.4,8.0,82,989.01,18.9,61,17.77,0.0,1015.07,90.0
2019-06-18 17:30,50.630445,-96.9807633333333,6.8,8.2,81,988.94,18.8,60,17.72,0.0,1014.98,90.0
2019-06-18 17:40,50.630445,-96.980765,7.0,8.7,80,988.90,18.7,61,17.65,0.0,1014.99,90.0
2019-06-18 17:50,50.6304433333333,-96.9807633333333,6.2,7.3,82,988.79,18.9,57,17.58,0.0,1014.88,90.0
2019-06-18 18:00,50.630445,-96.980765,6.0,7.0,80,988.71,19.0,57,17.58,0.0,1014.79,0.0
2019-06-18 18:10,50.630445,-96.9807833333333,5.0,6.2,80,988.68,19.3,56,17.65,0.0,1014.75,0.0
2019-06-18 18:20,50.63042,-96.9807733333333,4.1,5.4,100,988.64,20.0,54,17.69,0.0,1014.66,0.0
2019-06-18 18:30,50.630435,-96.980765,4.7,6.4,77,988.61,20.2,52,17.73,0.0,1014.62,0.0
2019-06-18 18:40,50.6304383333333,-96.980765,6.2,7.0,70,988.51,19.6,52,17.81,0.0,1014.52,0.0
2019-06-18 18:50,50.6304416666667,-96.98077,5.8,7.2,71,988.40,19.5,52,17.89,0.0,1014.42,0.0
2019-06-18 19:00,50.6304383333333,-96.9807683333333,5.2,6.2,71,988.34,19.7,53,17.92,0.0,1014.34,360.0
2019-06-18 19:10,50.6304383333333,-96.9807666666667,4.9,6.3,83,988.25,20.2,51,17.94,0.0,1014.24,360.0
2019-06-18 19:20,50.63044,-96.9807683333333,5.0,5.8,100,988.22,20.9,51,18.01,0.0,1014.18,360.0
2019-06-18 19:30,50.630465,-96.9807616666667,5.4,6.4,98,988.14,21.1,50,18.10,0.0,1014.09,360.0
2019-06-18 19:40,50.63046,-96.9807683333333,4.7,6.0,90,988.07,21.5,49,18.17,0.0,1014.00,360.0
2019-06-18 19:50,50.6304533333333,-96.9807733333333,5.6,6.8,96,987.98,21.6,49,18.19,0.0,1013.90,360.0
2019-06-18 20:00,50.6304566666667,-96.9807733333333,5.3,6.7,93,987.88,21.8,50,18.24,0.0,1013.77,318.7
2019-06-18 20:10,50.6304583333333,-96.9807683333333,4.7,5.8,93,987.86,22.1,49,18.26,0.0,1013.71,318.7
2019-06-18 20:20,50.6304533333333,-96.9807583333333,4.8,5.9,83,987.80,21.9,50,18.29,0.0,1013.64,318.7
2019-06-18 20:30,50.6304566666667,-96.98076,6.0,7.0,72,987.68,21.2,54,18.27,0.0,1013.58,318.7
2019-06-18 20:40,50.6304583333333,-96.9807633333333,6.1,7.0,71,987.55,20.9,54,18.24,0.0,1013.46,318.7
2019-06-18 20:50,50.6304816666667,-96.980795,5.8,6.6,69,987.49,20.9,54,18.25,0.0,1013.39,318.7
2019-06-18 21:00,50.6304683333333,-96.9807633333333,5.6,6.4,67,987.48,20.9,56,18.26,0.0,1013.36,360.0
2019-06-18 21:10,50.6304683333333,-96.9807733333333,5.3,6.1,64,987.44,20.9,55,18.28,0.0,1013.29,360.0
2019-06-18 21:20,50.63044,-96.98078,4.8,5.6,60,987.41,20.8,58,18.40,0.0,1013.25,360.0
2019-06-18 21:30,50.6304483333333,-96.9807783333333,5.6,6.2,65,987.31,21.1,54,18.45,0.0,1013.13,360.0
2019-06-18 21:40,50.6304566666667,-96.9807783333333,5.9,6.6,61,987.26,21.1,55,18.57,0.0,1013.06,360.0
2019-06-18 21:50,50.630445,-96.980775,5.7,6.5,69,987.19,21.3,58,18.72,0.0,1012.98,360.0
2019-06-18 22:00,50.63048,-96.9807683333333,5.2,6.1,74,987.08,21.9,57,18.76,0.0,1012.82,23.1
2019-06-18 22:10,50.63047,-96.9807933333333,5.0,5.6,67,987.05,22.0,54,18.82,0.0,1012.79,23.1
2019-06-18 22:20,50.6304616666667,-96.9807366666667,5.4,6.2,56,986.96,21.4,56,18.91,0.0,1012.76,23.1
2019-06-18 22:30,50.6304533333333,-96.980795,5.1,6.1,57,986.88,21.3,57,18.88,0.0,1012.70,23.1
2019-06-18 22:40,50.6304833333333,-96.9807683333333,5.4,6.1,54,986.77,21.3,58,18.84,0.0,1012.58,23.1
2019-06-18 22:50,50.6304466666667,-96.9807466666667,5.2,6.0,58,986.74,21.3,60,18.80,0.0,1012.55,23.1
2019-06-18 23:00,50.63046,-96.9808033333333,5.2,5.8,61,986.72,21.4,60,18.77,0.0,1012.53,284.2
2019-06-18 23:10,50.6305016666667,-96.9807833333333,5.1,5.8,62,986.67,21.5,58,18.81,0.0,1012.48,284.2
2019-06-18 23:20,50.6304566666667,-96.980755,4.6,5.4,63,986.62,21.6,57,18.81,0.0,1012.41,284.2
2019-06-18 23:30,50.63044,-96.9807666666667,4.3,5.0,69,986.61,22.1,55,18.86,0.0,1012.37,284.2
